TimePST,TemperatureF,Dew PointF,Humidity,Sea Level PressureIn,VisibilityMPH,Wind Direction,Wind SpeedMPH,Gust SpeedMPH,PrecipitationIn,Events,Conditions,WindDirDegrees,DateUTC
12:52 AM,54.0,18.0,24,30.15,10.0,Calm,Calm,-,N/A,,Clear,0,2012-11-24 08:52:00
1:52 AM,54.0,17.1,23,30.13,10.0,East,3.5,-,N/A,,Clear,80,2012-11-24 09:52:00
2:52 AM,55.0,15.1,21,30.12,10.0,ESE,3.5,-,N/A,,Clear,110,2012-11-24 10:52:00
3:52 AM,54.0,12.0,19,30.12,10.0,Calm,Calm,-,N/A,,Clear,0,2012-11-24 11:52:00
4:52 AM,54.0,10.9,18,30.12,10.0,Calm,Calm,-,N/A,,Clear,0,2012-11-24 12:52:00
5:52 AM,53.1,10.0,18,30.13,10.0,ESE,3.5,-,N/A,,Clear,110,2012-11-24 13:52:00
6:52 AM,54.0,10.0,17,30.12,10.0,Calm,Calm,-,N/A,,Clear,0,2012-11-24 14:52:00
7:52 AM,55.0,12.9,19,30.13,10.0,Calm,Calm,-,N/A,,Clear,0,2012-11-24 15:52:00
8:52 AM,55.9,17.1,22,30.13,10.0,SE,3.5,-,N/A,,Clear,140,2012-11-24 16:52:00
9:52 AM,57.9,17.1,20,30.12,10.0,SSW,3.5,-,N/A,,Clear,210,2012-11-24 17:52:00
10:52 AM,57.9,19.0,22,30.11,10.0,South,4.6,-,N/A,,Clear,170,2012-11-24 18:52:00
11:52 AM,59.0,24.1,26,30.08,10.0,South,6.9,-,N/A,,Clear,170,2012-11-24 19:52:00
12:52 PM,59.0,21.9,24,30.06,10.0,SSW,6.9,-,N/A,,Clear,200,2012-11-24 20:52:00
1:52 PM,59.0,26.1,28,30.04,10.0,South,6.9,-,N/A,,Clear,190,2012-11-24 21:52:00
2:52 PM,57.9,28.0,32,30.01,10.0,South,6.9,-,N/A,,Clear,180,2012-11-24 22:52:00
3:52 PM,55.9,37.0,49,30.03,10.0,Calm,Calm,-,N/A,,Clear,0,2012-11-24 23:52:00
4:52 PM,53.1,37.0,55,30.02,10.0,Calm,Calm,-,N/A,,Clear,0,2012-11-25 00:52:00
5:52 PM,53.1,37.0,55,30.03,10.0,Calm,Calm,-,N/A,,Clear,0,2012-11-25 01:52:00
6:52 PM,52.0,35.1,53,30.02,10.0,Calm,Calm,-,N/A,,Clear,0,2012-11-25 02:52:00
7:52 PM,51.1,21.9,32,30.02,10.0,East,3.5,-,N/A,,Clear,90,2012-11-25 03:52:00
8:52 PM,50.0,32.0,50,30.01,10.0,Calm,Calm,-,N/A,,Clear,0,2012-11-25 04:52:00
9:52 PM,51.1,27.0,39,29.99,10.0,SE,3.5,-,N/A,,Clear,140,2012-11-25 05:52:00
10:52 PM,50.0,27.0,41,30.00,10.0,SSE,3.5,-,N/A,,Clear,150,2012-11-25 06:52:00
11:52 PM,50.0,24.1,36,29.98,10.0,Calm,Calm,-,N/A,,Clear,0,2012-11-25 07:52:00